FREGAT DEB, 47337

Orbit data source: Space-Track

FREGAT DEB, 47337 is space debris in LEO originally from a launch on Mon, 18 Jul 2011 UTC launched from the Tyuratam Missile And Space Complex (TTMTR). Debris objects in space refer to the collection of defunct objects orbiting the Earth. Examples of debris include non-operational satellites, rocket bodies, and fragments generated from explosions, collisions, or faulty payload assembly.

Loading next visibility...
Identifier
47337, 2011-037NU
Orbit
LEO
Country
Flag of CISCIS
Related business
Manufacturer
Lavochkin
Mission
Spacecraft
Bus & Motor
Unknown
Mass
Unknown
Launch date (UTC)
2011-07-18 (14 years ago)
Launch vehicle
Unknown
Launch site
Tyuratam Missile And Space Complex (TTMTR)
Object type
Payload
Rocket body
Debris
Shape & HBR
Unknown shape, 0.1 m
Radar Cross Section
Small (<0.1 m²)

Expand to show TLE details & history
Last TLE update: 1 day ago

TLE from 1 day ago
0 FREGAT DEB
1 47337U 11037NU  25296.47207906  .00035119  00000-0  62713-1 0  9994
2 47337  51.4407 209.1965 1395562  88.2532 287.7099 11.53223815196838
Epoch: 2025-10-23T11:19Z
TLE epoch observation values (Epoch: 2025-10-23T11:19:47.630Z)
Latitude
-0.00004°
Longitude
7.11716°
Altitude
1,700.741 km
Speed
7.109 km/s
True Right ascension
13h 56m 47s
True Declination
0° 00' 00"
Sunlit
Object was in daylight at epoch
Visualization orbit readout
Latitude
Unknown
Longitude
Unknown
Altitude
Unknown
Speed
Unknown
Apparent Right ascension
Unknown
Apparent Declination
Unknown
Sunlit
N/A
Visualization observer readout
Local Sidereal Time
17:30:16
Azimuth
Unknown
Elevation
Unknown
Doppler factor
Unknown
Orbital elements
Apogee altitude
3,052.751 km
Perigee altitude
742.836 km
Semi-major axis
8,275.931 km
Eccentricity
0.13956
Inclination
51.4407°
RAAN
209.1965°
Arg. of periapsis
88.2532°
True anomaly
271.83113°
Mean anomaly
287.7099°
Eccentric anomaly
279.83134°
Mean motion
2.88282 °/min
Orbital period
124.88 mins
BSTAR
0.062713
Loading maneuver chart data...
Computing Atmospheric mass density...
Loading historical data...
Loading historical data...
Loading historical data...
Loading historical data...
Loading historical data...
Loading historical data...
Loading historical data...

Documentation

Showing up to 5 results
|